Weather History for Atwater, CA

Change the Weather History Date:

Thursday, October 11, 2012

  Actual Average (KMCE) Record (KMCE)
Temperature  
Mean Temperature 61 °F 65 °F  
Max Temperature 69 °F 81 °F 92 °F (1999)
Min Temperature 53 °F 50 °F 41 °F (1998)
Degree Days  
Heating Degree Days 4    
Month to date heating degree days  
Since 1 July heating degree days  
Cooling Degree Days 0    
Month to date cooling degree days  
Year to date cooling degree days  
Growing Degree Days 11 (Base 50)    
Moisture  
Dew Point 52 °F    
Average Humidity 81    
Maximum Humidity 100    
Minimum Humidity 49    
Precipitation  
Precipitation 0.00 in 0.01 in 0.06 in (2000)
Month to date precipitation 0.12  
Year to date precipitation 9.11  
Since 1 July precipitation 0.43  
Snow  
Snow 0.00 in - - ()
Month to date snowfall  
Since 1 July snowfall  
Since 1 September snowfall  
Snow Depth -    
Sea Level Pressure  
Sea Level Pressure 29.90 in    
Wind  
Wind Speed 7 mph (NNW)    
Max Wind Speed 10 mph    
Max Gust Speed -    
Visibility 10 miles    
Events      
T = Trace of Precipitation, MM = Missing Value Source: NWS Daily Summary

Daily Weather History Graph

Daily Weather History Graph

Search for Another Location

Airport:

Trip Planner

Search our weather history database for the weather conditions in past years. The results will help you decide how hot, cold, wet, or windy it might be!

Date:

Astronomy

Oct. 11, 2012 Rise Set
Actual Time 7:07 AM PDT 6:29 PM PDT
Civil Twilight 6:40 AM PDT 6:56 PM PDT
Nautical Twilight 6:10 AM PDT 7:26 PM PDT
Astronomical Twilight 5:40 AM PDT 7:56 PM PDT
Moon 2:55 AM PDT (10/11) 4:05 PM PDT (10/11)
Length of Visible Light 12h 15m
Length of Day
11h 22m
Waning Crescent, 17% of the Moon is Illuminated
Oct 11
Waning Crescent
Oct 15
New
Oct 21
First Quarter
Oct 29
Full
Nov 6
Last Quarter

Hourly Weather History & Observations

Time (PDT) Temp. Dew Point Humidity Pressure Visibility Wind Dir Wind Speed Gust Speed Precip Events Conditions
12:35 AM 60.8 °F 51.8 °F 72% 29.88 in 10.0 mi NW 6.9 mph - N/A   Clear
12:55 AM 60.8 °F 51.8 °F 72% 29.88 in 10.0 mi NNW 5.8 mph - N/A   Clear
1:15 AM 59.0 °F 51.8 °F 77% 29.89 in 10.0 mi North 3.5 mph - N/A   Clear
1:35 AM 59.0 °F 51.8 °F 77% 29.88 in 10.0 mi NNW 6.9 mph - N/A   Clear
1:55 AM 57.2 °F 51.8 °F 82% 29.87 in 10.0 mi North 9.2 mph - N/A   Clear
2:15 AM 57.2 °F 51.8 °F 82% 29.87 in 10.0 mi North 5.8 mph - N/A   Clear
2:35 AM 57.2 °F 51.8 °F 82% 29.88 in 10.0 mi North 5.8 mph - N/A   Clear
2:55 AM 57.2 °F 51.8 °F 82% 29.88 in 10.0 mi North 5.8 mph - N/A   Scattered Clouds
3:35 AM 57.2 °F 51.8 °F 82% 29.87 in 10.0 mi NNW 10.4 mph - N/A   Clear
3:55 AM 59.0 °F 51.8 °F 77% 29.87 in 10.0 mi NNW 10.4 mph - N/A   Clear
4:15 AM 57.2 °F 51.8 °F 82% 29.87 in 10.0 mi NW 9.2 mph - N/A   Clear
4:35 AM 57.2 °F 51.8 °F 82% 29.87 in 10.0 mi NW 8.1 mph - N/A   Clear
4:55 AM 57.2 °F 53.6 °F 88% 29.86 in 10.0 mi NNW 10.4 mph - N/A   Clear
5:35 AM 55.4 °F 53.6 °F 94% 29.87 in 10.0 mi NNW 6.9 mph - N/A   Clear
5:55 AM 55.4 °F 53.6 °F 94% 29.87 in 10.0 mi NNW 9.2 mph - N/A   Clear
6:15 AM 55.4 °F 53.6 °F 94% 29.86 in 10.0 mi NNW 9.2 mph - N/A   Clear
6:35 AM 53.6 °F 53.6 °F 100% 29.85 in 10.0 mi North 9.2 mph - N/A   Clear
6:45 AM 53.6 °F 53.6 °F 100% 29.85 in 10.0 mi North 6.9 mph - N/A   Clear
6:55 AM 53.6 °F 53.6 °F 100% 29.85 in 10.0 mi North - - N/A   Clear
7:45 AM 53.6 °F 53.6 °F 100% 29.86 in 7.0 mi NW 6.9 mph - N/A   Partly Cloudy
8:50 AM 57.2 °F 55.4 °F 94% 29.87 in 7.0 mi North 9.2 mph - N/A   Mostly Cloudy
9:45 AM 60.8 °F 51.8 °F 72% 29.89 in 10.0 mi Calm Calm - N/A   Overcast
10:45 AM 60.8 °F 51.8 °F 72% 29.91 in 7.0 mi Variable 3.5 mph - N/A   Overcast
11:45 AM 62.6 °F 50.0 °F 63% 29.91 in 7.0 mi Calm Calm - N/A   Overcast
12:45 PM 62.6 °F 51.8 °F 68% 29.91 in 10.0 mi WNW 9.2 mph - N/A   Overcast
1:45 PM 60.8 °F 53.6 °F 77% 29.87 in 7.0 mi WNW 9.2 mph - N/A   Mostly Cloudy
3:45 PM 69.8 °F 50.0 °F 49% 29.88 in 10.0 mi Variable 4.6 mph - N/A   Partly Cloudy
4:45 PM 69.8 °F 51.8 °F 53% 29.88 in 10.0 mi Variable 3.5 mph - N/A   Partly Cloudy
6:50 PM 62.6 °F 51.8 °F 68% 29.89 in 10.0 mi West 9.2 mph - N/A   Partly Cloudy
7:45 PM 60.8 °F 51.8 °F 72% 29.93 in 10.0 mi West 6.9 mph - N/A   Clear
8:45 PM 59.0 °F 50.0 °F 72% 29.93 in 10.0 mi West 10.4 mph - N/A   Clear
9:15 PM 57.2 °F 51.8 °F 82% 29.95 in 10.0 mi North 6.9 mph - N/A   Clear
9:35 PM 57.2 °F 51.8 °F 82% 29.95 in 10.0 mi North 5.8 mph - N/A   Clear
9:55 PM 57.2 °F 53.6 °F 88% 29.95 in 10.0 mi North 5.8 mph - N/A   Clear
10:35 PM 57.2 °F 53.6 °F 88% 29.96 in 10.0 mi North 6.9 mph - N/A   Mostly Cloudy
10:55 PM 57.2 °F 53.6 °F 88% 29.96 in 10.0 mi NNW 5.8 mph - N/A   Scattered Clouds
11:15 PM 57.2 °F 53.6 °F 88% 29.96 in 10.0 mi NNW 6.9 mph - N/A   Mostly Cloudy
11:35 PM 57.2 °F 53.6 °F 88% 29.97 in 10.0 mi NNW 6.9 mph - N/A   Overcast
11:55 PM 57.2 °F 53.6 °F 88% 29.96 in 10.0 mi NNW 6.9 mph - N/A   Mostly Cloudy